User: anonymous   Login
Location: Unspecified
(0.0000°N, 0.0000°E)
Time: 08:44:06
(UTC+00:00)
Language:

ARKYD 6A - Orbit

View from above orbital plane
View from above orbital plane
View from above satellite
View from above satellite

Ground track
Ground track

The orbit data is extracted from the following two-line orbital elements,

1 43130U 18004V   23088.77116649  .00040936  00000-0  10369-2 0  9999
2 43130  97.3334 166.7702 0007113  73.2428 286.9598 15.39592174290014
Epoch (UTC): 29 March 2023 18:30:28
Eccentricity: 0.0007113
inclination: 97.3334°
perigee height: 442 km
apogee height: 452 km
right ascension of ascending node: 166.7702°
argument of perigee: 73.2428°
revolutions per day: 15.39592174
mean anomaly at epoch: 286.9598°
orbit number at epoch: 29001

The dashed part of the orbit path shows where the satellite is in the earth's shadow,  

DLR